Wind_Speed
5 6 6 8 8 9 8 6 6 4 6 7 9 7 3 5 2 1 5 4 4 5 2 4 8 7 5 6 9 13 14 12 9 3 4 5 5 6 8 7 7 9 8 8 9 11 13 13 13 10 9 8 8 7 6 5 6 7 9 13 15 17 17 18 20 21 20 18 18 18 17 16 15 14 12 12 13 14 14 14 14 15 15 15 15 15 14 14 13 13 13 11 11 12 13 15 14
6 6 6 8 9 9 5 5 6 5 7 7 9 6 4 8 3 6 6 4 5 7 5 6 7 6 6 8 8 10 13 14 13 9 8 8 9 10 10 7 7 9 7 7 8 11 13 13 14 12 10 9 9 7 6 5 5 6 7 11 15 18 17 18 20 21 20 18 17 17 17 16 15 14 13 12 14 15 15 14 15 15 16 16 15 15 14 13 12 12 12 11 11 11 12 14 14
7 7 7 8 9 8 4 5 7 7 8 7 8 5 6 5 5 5 7 7 10 8 7 7 7 5 1 7 7 8 10 11 12 10 8 5 6 10 9 7 9 11 8 6 7 10 11 13 14 12 11 10 10 8 7 5 5 6 6 10 15 17 18 19 20 20 19 17 17 17 16 16 15 13 14 14 14 16 16 15 16 15 16 16 15 14 13 12 11 11 11 11 11 11 12 13 15
7 8 9 9 7 7 6 6 7 9 7 7 6 7 7 5 5 9 10 9 9 7 6 6 6 6 4 8 7 8 10 9 12 9 8 7 8 10 8 8 10 11 10 7 7 9 10 12 14 12 11 11 10 9 8 6 5 6 6 9 14 17 19 19 20 20 19 18 18 17 16 16 15 14 14 14 15 16 15 15 16 16 15 15 15 14 13 12 11 11 11 12 12 12 12 13 15
7 9 11 10 5 4 5 6 7 9 8 7 3 7 7 5 10 10 8 8 6 5 5 4 5 5 8 11 4 5 8 7 12 11 10 10 9 10 8 8 10 11 11 10 10 10 10 12 15 12 11 10 9 8 7 6 5 6 7 9 13 17 20 19 20 21 20 19 19 17 17 16 15 15 15 15 16 15 15 15 15 15 15 15 15 14 13 12 11 11 12 12 12 12 12 13 14
9 9 10 10 6 4 5 7 7 9 9 8 5 5 6 6 11 10 9 8 6 4 3 2 4 7 7 9 8 8 6 6 9 10 10 10 11 11 10 11 12 12 13 13 13 14 13 15 16 13 12 11 9 7 7 6 5 6 7 8 12 17 19 20 21 22 20 20 19 18 18 17 15 15 16 16 16 15 14 14 15 15 15 15 15 14 14 13 11 11 11 11 12 13 13 13 13
10 8 7 8 6 4 7 8 8 9 8 6 3 3 5 8 10 10 10 9 7 5 1 1 5 7 7 6 8 10 10 10 9 9 11 11 13 13 11 12 13 13 16 18 17 16 15 17 17 15 15 14 11 9 7 7 6 6 7 9 13 17 19 20 20 20 20 19 18 18 17 17 16 15 16 16 16 15 14 14 16 15 15 15 15 15 15 14 12 10 11 12 13 14 13 12 12
11 7 4 6 6 5 8 8 10 8 2 4 2 3 2 9 8 9 11 9 7 6 4 3 4 3 7 6 6 9 11 13 11 11 12 12 14 13 12 13 14 16 19 20 19 16 16 18 17 15 17 17 14 13 10 8 8 7 8 10 13 17 18 19 19 19 19 18 18 18 17 16 16 15 15 16 16 15 14 14 15 15 16 16 16 15 15 14 12 10 11 12 13 14 13 12 11
11 8 4 6 7 6 8 8 11 8 3 2 5 1 1 8 8 9 9 7 7 6 6 5 3 2 9 10 8 9 10 13 12 12 12 13 14 13 14 15 15 18 20 19 17 14 14 17 17 15 16 16 15 15 13 11 10 8 8 11 13 17 18 19 19 19 19 18 18 18 17 16 15 15 15 15 15 15 14 14 14 15 16 17 16 15 14 13 12 10 10 11 13 13 12 12 11
8 7 5 5 8 7 8 8 9 7 5 2 4 6 5 6 8 10 8 7 8 6 7 3 1 4 10 11 8 8 10 12 12 13 13 14 14 14 15 15 16 18 22 19 17 13 10 15 15 15 17 17 16 15 15 14 12 10 10 11 13 16 17 18 18 18 18 18 18 17 16 16 15 14 15 15 14 14 13 13 13 14 16 17 16 14 13 12 11 10 10 11 12 12 12 13 12
6 6 6 5 8 8 8 8 9 6 6 4 4 7 7 7 8 8 7 8 8 6 7 4 4 8 10 10 7 8 11 11 12 14 13 14 15 15 15 15 16 18 22 21 19 18 12 13 14 17 19 18 18 17 16 16 15 13 12 12 13 15 17 18 18 18 17 17 17 15 15 16 15 15 15 14 14 13 13 13 13 14 15 16 15 13 12 11 11 10 11 12 13 12 13 13 12
6 6 6 6 7 7 7 8 9 7 7 7 7 7 6 8 9 7 6 8 7 7 7 3 4 8 8 9 6 10 12 10 12 13 13 14 15 15 16 16 16 18 21 22 19 19 17 13 12 17 20 20 20 21 20 18 16 13 12 12 12 14 15 17 17 17 16 16 15 15 15 16 15 15 15 14 14 13 13 14 14 14 15 15 14 12 11 11 11 10 12 13 14 14 13 13 11
7 6 6 7 7 8 8 8 5 6 6 7 8 8 7 8 9 7 6 7 7 8 6 2 5 4 5 10 7 10 11 11 12 12 13 14 14 15 16 16 16 17 18 21 20 18 18 15 11 14 20 20 19 19 19 18 15 13 12 12 12 13 14 15 16 16 16 16 16 15 16 15 15 15 15 15 14 13 13 13 14 14 15 15 15 13 11 11 11 10 12 14 15 14 13 12 10
7 6 6 6 8 9 7 7 4 4 6 7 9 8 7 7 7 8 7 8 8 6 7 5 2 3 6 9 7 8 10 12 12 12 13 13 14 14 15 15 15 16 15 17 19 19 18 17 15 13 16 17 17 17 17 17 16 14 14 13 13 13 13 14 14 15 15 16 16 16 16 15 15 16 16 15 14 13 14 14 14 14 14 14 14 13 11 11 11 11 12 14 15 14 13 11 9
8 5 6 7 8 8 6 7 5 4 5 10 11 9 8 4 4 7 6 5 6 8 6 5 3 2 5 6 7 10 12 14 13 12 12 12 13 13 14 15 15 15 14 15 15 17 17 16 16 14 11 12 15 15 15 16 16 15 14 14 13 13 13 13 14 14 15 16 17 16 16 15 15 16 16 16 15 14 14 14 14 14 13 13 13 12 11 10 11 12 13 14 14 13 11 9 8
7 5 5 7 8 7 6 8 6 5 5 12 12 11 9 5 4 4 3 1 7 8 3 5 2 3 4 4 11 17 16 15 13 12 12 11 11 10 12 13 15 15 14 14 13 14 14 14 14 12 10 9 11 12 13 15 17 17 16 14 13 13 13 13 14 15 16 16 17 17 16 16 16 17 17 16 16 16 15 14 14 14 12 12 12 11 10 11 12 14 14 14 13 12 10 8 6
5 6 7 6 8 7 6 8 6 2 7 11 11 11 10 9 6 2 3 1 7 8 3 6 4 3 7 11 17 20 17 15 13 12 10 9 8 9 10 10 13 14 14 13 11 11 11 11 11 10 10 9 8 9 12 13 17 18 16 15 14 13 13 13 14 15 16 16 17 16 16 16 16 16 17 17 17 17 16 15 15 14 13 12 12 11 10 11 13 15 15 14 13 10 9 8 6
5 6 7 6 8 7 4 6 4 2 7 8 9 11 10 10 9 4 6 6 6 8 5 7 6 6 9 12 16 17 16 14 12 11 9 8 6 7 8 9 9 10 11 12 10 9 8 8 9 9 8 8 7 7 10 11 15 17 14 15 15 13 13 13 13 15 16 16 17 16 16 16 17 17 18 18 18 18 18 16 16 15 13 12 12 12 10 11 13 15 15 14 13 10 9 8 7
7 7 6 7 8 1 3 2 3 2 4 7 7 9 9 10 10 7 9 9 8 8 8 9 8 9 8 11 15 15 15 12 11 10 8 6 5 7 7 8 8 8 8 9 10 8 7 6 6 7 7 7 7 6 8 7 11 15 12 13 14 14 13 13 13 14 15 15 15 16 16 15 16 18 19 19 19 19 19 18 17 15 13 13 13 12 11 10 12 15 16 13 12 10 8 8 8
8 7 7 8 6 3 3 2 4 3 2 6 7 7 7 8 10 8 9 10 9 9 9 10 10 11 10 12 14 14 14 12 11 9 8 6 7 7 6 7 7 7 6 8 9 7 7 5 5 5 5 6 6 7 8 8 9 10 11 12 12 14 14 13 13 14 14 14 16 15 15 16 16 18 18 18 19 18 20 19 18 16 14 13 13 13 11 11 12 15 16 13 11 10 8 7 8
7 9 7 4 2 2 3 2 0 2 1 4 7 6 7 7 7 7 9 8 8 10 10 9 8 12 12 12 14 14 14 13 12 9 8 8 7 7 7 7 7 7 7 8 9 7 6 5 4 4 4 4 4 7 7 8 11 8 8 11 13 15 13 14 14 14 13 14 17 16 16 18 16 16 16 17 19 20 21 20 19 17 15 15 14 14 13 13 13 15 15 13 11 10 7 7 7
5 9 7 6 4 0 5 3 1 1 3 2 7 7 7 7 6 7 8 8 3 1 6 7 4 10 12 12 13 12 13 12 12 10 9 9 7 7 8 8 7 7 7 9 9 7 6 5 5 3 3 3 2 5 6 6 10 10 8 8 12 15 12 12 13 14 14 15 17 15 14 16 15 15 15 16 17 19 22 21 19 18 17 17 16 14 14 15 14 15 15 13 12 9 7 7 7
6 8 7 3 5 2 5 5 3 2 5 5 5 5 5 6 8 7 9 7 6 8 6 6 3 10 12 12 11 11 12 11 11 11 10 9 9 9 8 8 8 9 9 9 8 8 7 6 5 4 3 2 1 2 6 5 5 7 9 7 8 12 11 12 12 11 13 14 16 14 13 12 13 14 14 15 14 16 21 21 19 18 18 18 17 15 14 15 14 13 13 11 10 8 7 8 7
8 7 5 5 4 1 4 5 4 3 5 3 1 1 4 7 7 6 9 6 5 4 3 4 5 10 11 11 11 10 11 11 10 10 10 10 10 10 10 9 9 10 10 9 9 8 7 6 6 5 3 2 1 2 3 4 4 3 6 6 5 7 8 9 9 9 10 11 12 13 14 12 11 11 12 14 13 14 18 20 19 18 18 17 17 15 14 14 13 13 12 10 9 8 8 8 8
10 8 3 5 4 3 4 4 4 4 3 2 1 4 7 6 2 3 9 5 4 2 1 3 5 9 10 10 10 10 10 11 11 10 10 11 11 11 10 10 10 11 10 9 8 8 7 7 7 6 4 3 2 1 2 3 4 5 4 3 4 4 5 7 5 5 7 9 11 13 14 12 10 10 11 9 10 13 15 20 20 17 18 17 15 15 13 13 13 13 12 10 9 8 8 8 8
10 9 2 5 6 5 5 5 5 5 4 2 6 9 7 4 2 5 10 5 5 4 4 5 6 8 9 9 10 10 10 11 11 11 11 12 12 12 10 10 11 11 10 9 9 8 7 7 7 7 5 4 3 1 2 3 2 4 5 3 1 1 5 7 5 4 6 7 8 10 10 10 10 9 10 9 8 11 12 17 20 17 19 18 15 14 12 12 13 12 11 10 9 8 8 8 7
5 6 3 6 6 6 6 6 6 5 4 4 8 9 6 6 5 9 10 8 7 6 7 8 8 8 9 10 10 9 10 11 12 12 11 12 12 11 10 9 11 11 10 10 9 8 7 7 8 7 7 6 4 3 3 3 2 3 3 3 3 2 2 4 6 7 8 9 8 8 8 7 8 7 9 12 10 9 11 15 19 20 20 18 14 13 11 11 12 11 11 10 9 9 8 8 7
3 5 4 6 5 6 8 6 6 6 5 6 8 9 7 7 8 9 5 10 8 8 8 9 9 9 9 10 10 9 10 11 12 12 12 12 11 11 10 10 11 11 11 11 10 9 8 8 8 8 8 7 6 5 4 3 3 3 3 2 3 2 1 1 3 5 8 10 9 9 9 6 4 6 9 12 12 12 13 13 17 19 17 15 12 12 11 11 11 11 11 10 9 9 8 8 8
5 6 7 9 8 8 10 9 7 6 5 5 5 9 9 10 13 9 7 8 8 9 9 10 10 9 9 10 9 8 9 12 12 12 12 11 11 12 11 11 11 11 12 11 11 11 9 9 9 8 8 8 7 6 5 4 4 3 3 3 3 3 1 1 0 1 4 8 9 10 11 7 4 5 8 10 11 13 14 13 15 16 14 13 11 10 11 11 10 11 10 9 9 9 9 8 8
7 8 9 8 8 10 12 11 8 7 4 5 4 7 9 13 15 10 9 8 8 9 10 10 9 8 9 9 9 9 9 11 11 11 12 11 11 12 12 12 11 11 13 12 12 11 10 9 9 8 9 9 9 8 7 6 5 4 4 4 4 4 1 1 1 0 1 4 6 8 10 8 6 5 6 9 10 12 14 15 17 16 12 12 11 10 10 10 10 10 10 9 10 10 9 9 9
8 8 8 6 7 8 13 13 8 8 6 6 7 7 7 9 13 11 9 9 10 10 10 10 9 8 9 9 8 9 10 10 11 12 12 11 12 12 13 13 10 10 13 13 13 12 11 10 9 9 9 9 9 9 9 8 7 6 6 6 6 5 3 2 2 2 1 1 3 5 6 5 6 5 6 9 10 12 13 15 16 15 12 11 12 11 9 10 10 10 10 10 11 11 10 10 10
7 7 6 7 8 3 11 13 10 9 6 8 9 7 8 6 12 11 9 10 10 10 10 10 9 8 8 8 8 8 9 11 12 13 12 12 12 13 14 13 10 10 13 14 14 14 12 10 9 9 8 7 8 7 8 7 7 7 7 7 6 6 5 3 3 3 2 1 2 2 3 3 3 4 6 9 11 12 11 12 14 14 14 13 14 15 12 10 10 10 11 11 11 11 11 11 11
7 7 6 7 8 5 8 11 11 10 6 9 11 8 8 4 12 11 9 10 10 10 10 10 9 9 8 7 8 8 8 10 11 13 14 13 13 13 14 14 13 11 13 13 14 14 12 11 9 8 7 6 5 5 6 6 6 6 7 7 7 7 5 5 4 3 2 2 2 2 3 4 3 2 5 6 8 11 10 11 13 15 18 16 15 17 17 13 11 11 11 12 12 12 13 13 12
6 7 7 7 7 5 4 7 10 11 8 9 12 10 11 5 8 11 10 10 11 11 10 10 9 9 9 8 9 9 9 9 10 13 16 16 14 14 14 14 14 12 12 13 13 13 12 11 9 8 7 5 5 4 3 4 5 6 6 7 7 7 5 6 5 3 3 3 2 3 4 5 4 3 3 4 6 11 12 9 9 12 16 18 16 15 18 17 14 13 12 12 13 13 14 14 12
6 7 7 7 7 8 8 2 7 10 9 10 11 11 13 11 6 10 10 11 12 11 10 10 10 10 10 9 9 9 10 10 10 12 16 18 16 15 15 14 14 14 13 12 12 11 11 11 9 8 7 5 5 3 2 2 3 5 7 7 8 8 6 6 5 3 3 3 3 4 4 4 4 4 3 3 4 9 12 12 10 7 8 14 16 15 16 18 18 18 15 13 14 14 13 14 14
8 5 3 6 6 7 6 3 5 5 7 9 10 11 12 13 10 10 11 11 11 11 10 9 9 10 10 9 9 9 9 9 11 14 16 18 17 16 16 15 15 14 14 13 12 11 10 10 9 8 6 5 4 2 1 2 3 5 6 7 8 8 7 6 4 3 3 3 4 4 4 4 4 4 4 3 4 6 9 13 15 12 9 10 13 17 17 17 19 20 18 16 16 16 16 14 13
7 6 4 7 7 7 5 4 6 2 5 8 11 12 13 14 13 11 12 13 12 13 12 11 10 10 9 10 10 10 10 10 11 14 16 18 19 18 17 16 16 15 14 14 13 12 11 10 9 8 7 5 3 3 3 3 3 4 5 7 8 8 8 7 4 3 3 3 3 4 3 3 4 5 4 3 4 5 6 9 11 13 15 14 16 19 19 17 20 21 20 20 20 20 20 15 13
6 7 7 8 9 8 3 3 5 2 4 9 12 13 15 14 13 12 11 13 14 14 14 13 13 12 11 12 13 12 11 10 12 14 15 17 19 20 19 17 17 16 15 15 14 13 12 11 10 9 8 7 5 4 4 3 3 4 4 6 6 7 8 7 5 3 3 3 3 3 3 3 4 5 5 4 5 5 6 7 7 8 10 13 17 20 21 20 22 23 22 23 23 23 23 18 13
6 7 8 8 7 6 3 5 3 4 4 8 12 14 14 13 13 13 13 12 12 14 15 14 14 14 13 13 13 13 11 11 13 11 12 15 18 20 20 18 18 17 16 15 15 14 13 12 11 10 9 8 7 6 5 4 4 3 4 5 5 6 6 6 4 3 2 3 2 2 3 4 5 6 6 6 6 6 6 7 7 8 8 9 12 15 19 21 23 24 24 25 22 21 23 21 16
7 7 7 7 5 5 4 5 4 4 4 8 12 11 9 10 12 13 15 15 13 14 16 15 15 15 14 13 11 10 11 12 12 9 10 14 17 20 20 19 18 17 16 15 15 15 14 13 12 11 10 9 9 8 7 5 4 3 4 3 4 4 4 4 4 3 3 3 3 2 3 5 6 7 7 6 7 7 7 8 8 9 10 9 10 11 14 17 21 23 25 27 24 20 22 21 19
8 8 8 7 4 4 4 1 2 4 7 9 9 8 9 11 14 13 13 15 15 15 16 16 15 14 13 12 12 11 10 10 10 10 11 13 16 19 20 20 18 17 16 15 15 15 14 13 13 12 11 10 10 10 9 6 4 3 3 2 2 3 3 4 4 4 3 3 2 2 3 4 6 6 7 7 7 8 7 8 9 9 10 11 11 12 13 14 18 21 23 26 26 24 23 20 18
8 9 9 8 7 5 5 3 4 7 7 9 8 7 6 8 12 13 10 12 14 14 15 16 15 14 14 13 13 12 10 9 9 10 12 13 15 18 20 20 18 18 17 16 15 15 15 14 14 14 12 11 11 11 9 7 5 4 3 2 2 1 2 4 4 3 3 3 2 2 3 4 5 6 6 6 7 8 8 8 8 10 11 12 12 13 14 14 16 19 22 24 25 27 27 20 18
6 4 7 6 7 6 7 6 7 7 4 7 8 7 5 2 7 11 10 9 11 11 13 15 14 13 14 13 11 11 11 10 9 10 11 13 15 17 18 19 19 18 18 17 16 15 15 14 14 15 13 11 11 11 9 7 5 5 4 3 2 1 2 3 2 2 1 1 1 2 2 3 4 5 6 6 7 7 8 9 9 10 11 12 13 13 14 15 15 16 19 23 25 27 28 23 21
3 3 5 5 7 8 8 8 8 7 4 5 10 9 7 5 7 7 10 10 10 11 11 12 12 13 13 12 11 11 12 12 10 10 11 13 15 16 18 19 19 18 18 17 16 15 16 15 15 15 13 12 12 11 10 8 6 5 5 4 3 3 3 3 3 2 1 1 1 1 2 3 3 4 5 6 6 7 8 9 10 11 11 12 13 13 14 15 16 15 16 21 25 28 29 28 28
1 2 3 4 7 9 8 8 8 8 6 5 10 9 6 8 7 5 8 9 10 11 11 11 11 12 12 12 11 12 12 12 11 11 11 12 15 17 18 19 19 19 18 17 16 16 16 16 16 16 14 12 13 12 11 9 7 6 5 4 4 4 4 3 3 2 1 1 0 1 2 2 3 3 4 5 6 7 7 9 10 11 12 12 13 14 14 14 15 15 15 18 23 27 29 32 33
0 0 5 5 7 8 8 9 7 8 8 8 9 8 6 7 6 6 7 9 10 9 10 11 11 12 11 11 11 11 11 11 12 12 12 13 15 17 18 19 19 18 17 17 16 16 16 16 16 16 15 13 13 13 12 10 9 7 6 5 5 5 4 3 3 2 2 1 1 1 1 2 2 2 3 4 5 6 7 8 9 11 12 13 14 14 15 14 15 15 16 17 19 22 25 30 34
1 4 7 7 8 7 7 7 6 8 8 10 13 11 9 7 5 5 6 6 6 6 7 9 11 11 11 10 10 11 11 10 11 12 13 14 16 18 19 19 19 17 16 17 16 16 16 16 17 17 16 14 14 14 13 12 10 8 7 7 6 6 5 4 4 4 3 2 2 2 1 2 2 2 3 3 4 5 6 7 9 10 11 13 14 15 15 15 15 16 16 17 18 20 21 25 31
5 7 8 7 7 7 7 6 7 8 7 10 13 11 10 8 6 5 1 5 5 5 6 8 10 11 10 10 10 10 11 11 12 12 12 13 15 17 18 17 17 16 16 17 17 16 16 17 17 18 17 16 15 14 14 13 11 9 8 8 7 7 6 5 5 4 4 3 3 3 2 3 3 3 3 4 4 4 5 7 8 10 11 12 13 14 15 15 15 16 16 17 18 20 21 23 26
8 8 7 8 7 6 7 7 7 8 10 12 10 8 9 8 8 8 3 5 7 7 7 8 9 11 10 10 11 10 10 11 11 12 12 12 12 14 16 16 16 17 17 18 17 17 16 16 17 17 18 17 15 15 15 14 12 11 10 9 8 8 7 6 5 5 5 4 4 4 3 4 4 4 4 4 5 5 6 7 8 9 11 12 13 14 16 16 15 16 17 18 19 19 21 23 24
8 8 8 8 7 7 9 8 8 9 9 9 6 6 8 8 8 10 10 9 8 8 9 8 8 10 10 10 11 11 12 12 11 12 12 12 12 14 16 18 18 19 18 17 17 17 16 16 17 17 17 17 16 15 15 15 14 12 11 10 9 8 8 7 6 5 5 4 4 5 5 5 5 5 6 6 6 6 7 8 9 10 11 13 14 15 16 17 16 17 18 19 20 20 20 22 22
9 10 9 9 8 8 9 8 8 8 6 2 3 5 7 6 3 5 9 9 8 9 11 10 9 9 9 9 10 11 12 12 12 12 12 13 14 16 17 18 18 19 19 17 16 16 16 15 17 17 17 18 18 16 16 16 15 13 12 11 10 9 8 7 6 5 5 5 5 5 5 5 6 6 7 7 8 8 9 9 10 11 12 13 15 16 17 17 17 17 18 19 20 20 20 21 21
8 8 9 10 8 8 8 9 10 10 8 5 5 6 6 6 6 5 6 8 9 11 12 12 12 12 11 10 10 11 10 11 11 12 12 12 15 17 18 17 17 17 18 17 16 16 16 15 16 17 17 17 18 16 16 15 15 14 13 12 11 9 8 7 6 6 5 5 5 6 6 6 7 7 8 8 9 10 10 11 11 11 12 13 15 16 17 18 18 18 18 19 20 20 20 21 22
5 6 9 9 10 10 8 10 11 10 10 9 8 8 7 8 10 11 12 12 12 12 13 14 13 13 12 11 10 11 11 11 11 11 12 12 13 16 17 17 17 16 16 17 16 16 16 16 16 16 16 17 18 17 16 15 15 14 13 12 11 10 9 8 7 6 6 6 6 6 6 7 7 8 8 9 10 10 11 12 12 13 13 14 15 17 17 18 18 19 19 19 20 21 21 22 22
7 8 8 8 9 10 7 8 9 9 10 9 8 11 11 9 8 9 14 16 14 14 13 13 13 13 13 12 11 11 11 12 12 12 13 12 13 15 17 18 17 17 17 16 14 13 15 16 16 17 17 18 19 18 16 16 15 14 13 13 12 10 9 8 7 7 6 6 7 7 7 7 8 8 9 9 11 12 13 14 14 14 15 16 17 17 18 18 19 20 20 21 21 21 22 23 22
13 11 9 8 8 9 7 8 8 9 10 8 10 14 12 11 9 9 13 14 12 13 13 13 14 14 13 12 12 12 12 11 11 12 12 11 12 15 17 18 18 19 17 14 14 14 14 15 16 16 17 18 19 18 17 17 16 14 13 12 12 10 9 8 8 7 7 7 8 8 8 8 8 9 10 12 14 14 14 14 15 16 17 18 18 18 18 18 19 20 21 21 21 21 22 23 23
12 11 10 9 8 9 9 7 7 9 9 9 12 13 10 10 10 10 14 15 12 12 12 13 14 14 13 11 10 10 10 10 10 11 11 12 12 16 18 18 19 19 14 14 16 16 16 15 15 15 16 18 19 19 18 17 16 14 13 13 12 10 9 9 8 8 8 8 9 9 9 9 10 11 11 13 15 15 15 15 16 17 18 19 19 19 19 18 19 20 20 21 21 21 22 23 24
8 9 9 9 8 8 9 8 9 9 9 9 10 11 9 8 8 10 12 13 13 12 11 12 14 13 13 12 10 9 8 9 10 11 11 12 13 16 18 18 19 18 16 17 16 16 16 15 15 16 16 18 20 19 18 17 16 14 13 13 12 10 10 9 9 9 9 9 10 10 10 11 12 13 14 15 16 16 17 17 17 18 19 20 20 20 20 19 20 20 20 22 21 22 23 24 25
9 8 9 9 8 8 9 9 10 9 9 9 10 11 10 8 7 9 10 10 12 13 12 11 11 12 13 12 10 10 9 10 11 11 11 11 12 16 18 18 19 15 16 17 16 15 16 15 15 15 16 18 20 19 18 17 16 15 14 13 11 10 10 9 9 10 10 11 11 11 12 12 13 15 17 18 18 18 18 18 19 19 20 21 21 21 21 20 21 21 21 22 22 22 23 24 25
Wind_Direction
291 282 271 253 239 253 241 227 246 207 235 254 252 258 181 141 50 188 143 160 159 99 82 60 57 31 36 87 91 70 46 37 35 48 93 104 113 64 68 54 70 98 103 112 125 147 151 149 139 134 125 113 118 119 116 122 129 139 164 172 169 167 168 168 168 169 167 164 162 159 159 159 156 157 158 148 144 151 152 148 149 142 134 133 135 133 130 128 126 122 120 122 121 122 124 125 127
278 267 247 242 232 244 238 209 254 231 221 241 243 249 123 122 199 213 152 124 102 96 103 85 82 62 67 94 96 82 57 52 61 74 90 128 123 66 56 54 75 95 101 107 114 139 148 149 137 133 129 119 120 118 117 116 120 125 152 175 176 170 169 168 165 169 167 166 163 160 163 160 157 158 158 149 144 151 152 149 147 140 134 135 136 133 131 131 129 126 124 124 124 124 126 128 130
265 259 218 219 225 237 258 218 244 250 230 241 238 189 113 151 200 158 114 97 95 107 109 99 96 58 131 119 70 68 69 56 66 81 93 123 109 61 49 62 81 98 106 104 105 126 138 143 137 134 130 124 122 121 121 120 118 111 129 172 181 171 170 169 161 165 167 167 165 163 165 162 160 158 156 151 146 149 150 149 143 138 137 134 135 133 133 133 130 130 128 128 129 129 132 132 133
250 251 222 219 219 221 246 230 232 256 247 251 247 138 135 206 143 99 92 96 108 128 122 117 102 30 0 90 77 84 85 62 59 71 83 57 53 64 62 71 86 99 105 103 100 118 134 140 138 137 134 126 122 126 125 124 121 106 117 164 179 171 169 168 160 164 167 168 167 165 166 164 162 156 154 151 144 147 152 152 145 142 141 135 132 133 134 132 131 132 132 133 132 133 138 137 137
239 241 231 236 239 230 239 237 231 245 251 262 286 115 159 178 117 107 107 113 126 134 125 128 112 77 47 53 41 81 87 86 70 64 81 64 53 69 72 79 91 95 97 102 104 114 132 145 140 136 135 125 122 127 126 124 119 110 115 151 173 170 165 164 164 167 169 168 167 165 164 163 160 154 153 149 145 149 153 153 153 149 145 140 137 137 137 134 136 136 136 137 136 139 141 140 141
230 225 221 239 264 302 256 236 231 237 247 269 336 91 153 131 120 130 128 129 130 114 122 135 107 115 90 60 51 51 51 93 82 63 75 75 65 68 79 84 89 91 90 99 108 114 129 149 144 140 141 132 130 128 128 129 122 120 115 135 161 166 164 165 167 168 170 168 165 165 163 162 158 153 153 151 152 155 154 151 153 150 145 142 140 141 139 139 143 143 141 139 139 144 142 143 144
226 216 201 226 249 263 247 238 236 237 228 234 339 64 145 122 128 141 138 140 137 129 138 134 124 118 113 109 82 59 47 75 88 76 77 79 71 69 80 83 84 85 86 94 103 116 135 149 146 147 149 143 143 141 137 137 135 138 125 130 150 162 165 166 167 166 170 170 166 168 166 163 158 155 155 156 158 160 158 153 151 149 145 141 141 145 144 145 150 147 141 140 141 144 144 144 143
234 235 206 224 231 211 234 244 241 241 156 185 175 28 119 129 142 154 154 157 149 146 147 140 169 137 110 118 93 84 72 79 90 85 84 83 76 70 72 77 80 81 87 94 100 118 138 145 152 154 152 150 151 149 148 146 143 148 143 138 149 160 164 165 168 167 170 170 166 169 169 165 161 159 158 161 164 164 162 158 155 152 148 145 149 153 153 152 153 148 141 144 145 145 143 141 141
229 232 227 231 239 218 227 240 239 234 99 158 164 80 55 140 164 166 156 151 143 148 134 125 204 196 110 103 95 109 98 92 95 90 87 83 81 73 67 69 73 80 89 93 98 120 140 144 156 161 156 158 156 153 154 155 149 155 160 150 152 159 165 169 170 170 170 169 167 169 171 168 165 165 165 166 168 167 165 163 160 156 152 152 156 160 159 156 153 148 144 149 151 148 143 140 140
218 220 235 232 241 232 226 229 238 228 148 157 149 169 197 161 181 170 159 145 141 136 109 108 188 122 110 106 106 115 108 108 107 96 90 85 84 77 70 69 70 76 86 90 89 98 141 153 158 169 166 162 160 159 159 159 157 168 176 164 160 162 167 172 173 173 172 169 168 169 171 169 167 170 171 170 171 171 169 167 165 160 157 158 161 163 161 156 150 146 144 151 156 151 143 142 138
217 209 241 242 238 236 233 224 223 218 144 155 150 170 185 175 190 178 167 144 142 129 121 196 163 115 111 106 99 110 116 118 109 99 96 89 85 81 76 73 73 74 82 90 87 80 101 146 162 174 171 164 165 167 166 165 165 175 184 176 167 165 170 174 176 176 175 172 170 170 171 171 171 174 173 172 176 174 171 172 169 165 161 160 162 163 157 151 148 143 140 147 153 147 142 142 137
231 204 224 238 239 236 238 236 218 190 147 175 174 166 178 181 189 181 164 139 148 140 137 219 139 129 129 114 106 122 127 118 110 108 105 98 89 83 79 74 74 76 81 87 87 82 87 118 154 172 171 169 171 172 171 172 172 176 183 182 173 169 172 174 178 177 177 176 174 174 172 171 174 176 174 174 179 176 173 172 170 168 164 161 164 163 153 148 148 142 139 145 147 143 143 144 137
242 224 226 233 246 249 241 247 221 156 160 193 170 159 175 180 185 186 168 150 170 156 131 84 117 171 126 109 123 131 130 122 121 117 108 103 96 90 85 78 73 75 82 87 90 88 87 99 124 158 168 176 181 178 175 175 176 178 180 182 177 175 176 176 180 180 179 179 178 177 174 173 176 178 175 176 180 178 175 173 171 169 166 164 167 165 155 150 149 144 143 146 145 142 145 145 139
239 242 247 244 245 256 259 259 216 171 203 178 143 146 175 183 188 188 173 166 168 130 104 81 85 220 119 120 145 138 134 131 127 117 109 104 100 96 89 84 77 74 75 84 93 93 89 95 106 133 164 182 188 184 182 180 179 180 180 180 180 181 181 181 184 187 185 183 182 179 178 178 180 180 179 178 181 182 178 178 174 170 167 165 168 168 162 156 149 146 147 147 145 143 146 145 141
241 257 260 256 250 248 250 255 233 222 196 143 136 152 173 173 189 185 177 186 138 97 98 94 3 303 134 158 160 136 132 131 126 118 115 109 105 103 98 90 81 77 74 76 86 96 99 99 106 120 146 175 181 183 188 187 185 183 182 181 181 182 183 186 188 190 188 185 184 182 181 181 183 184 183 182 184 185 181 182 179 171 167 164 168 172 168 159 151 150 149 146 144 142 144 144 145
244 269 257 249 255 246 223 232 244 245 158 135 145 159 169 156 197 186 101 18 110 119 160 123 59 351 69 89 115 120 127 130 128 127 124 118 118 115 110 102 92 85 80 77 75 89 101 102 105 118 130 152 173 184 194 195 193 186 185 186 184 183 184 189 191 191 189 187 188 186 186 185 187 189 189 187 186 186 184 185 180 172 169 163 166 173 172 162 154 154 151 147 144 141 142 141 147
237 251 250 238 243 248 219 210 231 260 117 132 149 161 176 164 185 176 102 210 123 141 178 103 97 47 70 84 103 114 125 130 133 139 137 136 141 135 122 113 105 99 92 85 77 78 89 99 107 120 129 141 158 179 196 199 197 190 187 190 187 185 187 192 194 194 192 192 193 192 192 191 190 192 192 190 188 187 186 185 181 176 172 164 162 168 172 163 157 159 157 151 145 144 145 144 145
226 227 242 236 235 245 233 206 205 61 110 141 160 169 182 167 172 167 178 202 141 154 158 118 120 97 90 101 111 119 127 133 143 149 147 156 153 130 117 106 96 97 100 92 85 80 80 89 101 115 119 129 136 158 184 193 197 191 190 194 190 187 192 197 199 198 197 197 199 196 196 195 193 194 193 191 190 188 188 185 182 180 174 166 161 162 169 167 165 165 159 154 152 150 152 156 154
225 228 232 236 239 235 25 8 51 28 136 147 160 175 187 171 168 172 192 185 161 181 164 157 153 125 124 125 124 127 133 139 148 153 151 152 119 102 97 100 97 86 93 93 87 82 84 82 85 102 104 117 123 136 165 175 188 192 192 194 193 192 196 201 204 203 202 202 201 200 200 199 199 198 193 190 190 189 189 186 184 183 177 170 163 160 166 170 172 169 165 161 158 159 165 171 165
225 233 231 239 242 79 61 359 24 342 94 136 159 181 192 166 160 177 205 183 176 204 170 176 180 152 153 140 134 136 140 147 152 159 154 133 109 115 102 96 102 88 89 96 91 81 89 92 82 93 96 111 119 127 150 157 168 190 196 190 196 200 202 205 207 209 207 209 207 206 207 203 203 202 192 185 185 187 188 185 188 188 180 179 172 163 165 169 170 172 173 168 169 180 185 178 169
217 224 243 289 291 98 134 201 355 300 327 155 156 180 193 158 166 189 214 197 188 219 184 179 186 155 151 141 141 143 147 153 156 162 149 128 114 117 104 90 88 88 97 97 93 87 95 103 97 96 94 104 118 125 140 161 170 184 187 186 195 199 205 209 209 212 212 219 215 212 216 211 207 203 189 184 185 186 187 185 189 189 184 186 178 169 169 169 168 171 177 182 192 201 191 178 178
230 224 252 348 333 122 121 124 95 197 264 200 156 192 192 156 201 204 220 218 164 273 148 141 147 140 144 144 147 151 154 158 159 159 143 130 126 116 106 104 103 99 96 91 91 90 94 100 104 105 98 96 106 130 131 154 178 186 178 178 194 200 208 213 213 218 218 223 221 218 220 210 205 200 184 186 191 190 189 184 187 188 188 188 180 177 176 172 171 172 180 195 204 200 182 179 189
243 228 233 286 302 346 100 117 121 194 222 205 172 194 166 164 217 208 226 234 70 41 75 102 112 129 139 145 151 158 158 161 162 158 146 140 135 122 110 106 104 98 92 92 94 91 89 87 95 103 94 101 76 119 130 127 153 189 190 173 190 204 210 218 218 223 226 227 225 224 225 209 199 203 190 188 191 190 190 186 185 187 190 189 183 185 179 176 181 177 180 196 199 190 185 184 188
244 245 207 198 253 353 101 123 147 207 222 221 122 119 182 201 219 190 223 243 77 50 64 97 114 125 136 147 157 164 160 162 162 153 146 140 129 121 113 103 97 96 95 93 93 90 89 81 81 91 81 95 86 57 122 127 90 116 199 207 224 212 205 226 224 218 227 232 232 231 235 223 197 204 201 193 184 183 192 190 186 186 191 191 188 191 184 182 188 182 182 190 191 192 192 192 194
234 253 174 163 216 171 130 144 167 193 223 253 201 228 221 219 254 191 222 224 114 164 168 149 144 135 144 154 162 164 162 162 155 147 141 133 128 126 116 111 106 100 99 97 94 89 88 86 81 87 83 81 106 70 90 124 108 95 131 212 259 242 223 237 222 210 228 236 238 234 239 235 211 209 211 203 184 185 199 196 190 189 192 193 194 196 191 187 189 188 188 188 192 200 197 198 205
215 239 168 166 204 171 172 189 181 197 211 211 225 233 224 215 285 248 231 195 140 182 190 182 168 157 158 157 165 165 163 160 151 149 141 133 135 130 120 120 114 104 104 102 98 92 88 93 88 86 83 70 91 133 84 85 113 101 101 118 104 298 263 254 238 239 247 249 249 243 244 241 233 230 222 214 194 190 200 197 194 195 194 195 199 199 196 193 193 192 190 192 192 201 208 199 206
194 224 199 186 192 167 199 206 181 210 216 209 238 239 222 203 220 245 225 169 158 194 192 185 173 171 167 158 165 167 163 160 155 155 145 140 142 135 130 129 115 108 111 106 98 95 93 93 90 85 81 66 67 95 89 67 68 74 80 98 96 71 321 289 271 262 258 258 263 263 263 253 241 247 237 224 215 204 197 195 197 200 200 198 199 197 199 199 201 198 191 197 196 202 212 197 199
198 217 200 186 199 188 202 214 191 214 211 199 248 255 233 206 222 244 194 150 175 200 193 185 179 178 171 162 165 167 164 163 163 160 154 153 152 143 139 130 122 120 115 108 103 100 97 92 88 84 81 69 60 72 74 58 48 46 53 73 76 73 72 21 302 285 274 267 275 276 271 280 262 246 242 229 227 225 212 208 206 205 204 200 200 198 201 202 204 205 201 205 202 206 214 203 205
218 215 218 191 204 212 202 209 200 217 203 168 252 261 234 217 225 223 149 156 190 195 197 187 183 181 172 168 167 171 168 167 169 166 165 166 157 147 142 134 134 129 115 113 112 109 104 97 93 86 82 75 65 62 60 51 40 32 38 47 44 36 73 87 65 286 284 275 288 287 268 276 287 252 248 243 234 227 226 229 221 215 213 205 203 201 204 206 205 206 205 208 205 207 216 214 217
223 211 235 203 202 221 205 202 194 207 172 138 238 259 236 218 211 191 151 177 194 191 199 187 185 182 172 172 172 174 168 170 175 171 174 171 157 151 147 143 146 133 121 123 119 115 113 106 100 92 84 78 70 63 59 52 43 38 37 35 30 27 25 63 73 211 270 262 277 291 279 271 268 242 243 264 253 228 233 239 228 226 227 214 203 199 206 212 212 209 204 203 205 209 214 216 223
227 209 232 229 238 225 185 184 187 197 155 153 229 261 263 218 180 164 154 178 191 193 195 187 187 182 175 175 180 180 169 178 182 173 176 170 161 160 153 152 155 137 127 129 125 122 122 117 110 102 92 81 74 65 61 57 51 48 42 35 26 24 23 26 35 3 337 278 267 284 296 285 271 245 229 257 254 229 234 242 232 230 239 228 204 200 215 222 218 216 210 206 205 209 217 217 220
224 214 221 227 248 207 158 175 191 203 171 180 222 247 264 218 154 152 162 176 192 196 194 192 185 183 187 179 187 195 177 182 184 177 176 172 169 166 159 157 157 142 134 135 134 132 129 127 123 115 107 91 77 63 58 55 54 56 49 41 31 29 24 19 32 2 331 326 313 290 315 318 288 262 238 247 243 227 231 245 240 232 238 238 216 205 209 220 229 226 218 216 213 213 220 219 216
217 224 239 225 221 191 158 174 197 214 197 193 217 242 264 218 146 155 177 182 196 203 196 195 188 184 196 192 196 205 192 188 189 183 177 179 179 169 166 162 159 153 145 144 143 142 140 139 139 131 122 109 91 69 61 53 53 59 53 50 41 33 30 22 13 351 347 341 335 340 345 336 314 274 247 251 247 234 228 239 243 237 236 234 223 215 208 207 223 232 225 224 225 222 227 229 218
204 211 245 250 232 228 194 169 188 206 209 210 214 234 267 267 143 160 192 195 200 214 203 194 195 192 201 210 206 206 207 200 198 191 180 184 185 174 173 168 164 163 157 155 153 154 154 150 150 144 134 125 113 92 77 65 66 62 49 54 45 33 36 24 4 356 4 348 352 353 345 342 335 326 269 258 258 244 234 230 233 236 235 225 219 223 218 207 208 223 231 232 234 232 236 244 239
239 215 222 242 236 245 257 192 155 183 206 229 224 223 248 254 192 169 195 209 206 215 217 203 200 203 208 216 219 214 213 208 204 200 188 188 188 179 178 173 170 170 166 166 164 164 163 158 156 150 144 136 127 120 123 115 92 66 44 44 37 27 29 24 13 15 6 346 2 353 348 352 342 351 328 278 269 253 243 240 235 228 230 223 220 223 220 210 207 217 227 233 239 242 240 245 256
311 295 244 254 248 240 253 105 119 193 216 231 240 237 241 244 229 192 188 208 215 216 221 218 212 215 216 217 226 228 226 220 209 206 197 191 189 184 181 178 176 175 174 173 171 174 170 164 163 156 152 145 148 156 119 83 66 54 41 35 29 24 21 19 24 28 13 4 3 346 347 358 344 349 340 298 284 273 258 253 249 245 245 240 231 226 222 214 214 221 225 231 240 248 246 238 247
328 316 289 273 271 264 264 132 132 237 254 247 253 251 247 244 240 222 195 196 214 223 224 224 223 226 230 228 230 233 235 236 225 215 202 193 190 186 183 182 181 180 181 179 178 181 178 175 173 165 158 150 156 148 101 67 47 40 37 32 23 20 18 13 13 19 14 13 8 354 350 351 346 341 331 318 293 279 276 270 264 257 253 252 246 238 234 225 223 228 226 230 237 243 247 240 233
289 276 267 260 257 255 271 98 121 173 251 261 262 256 253 246 243 240 218 201 208 221 226 229 231 231 234 238 239 240 238 235 234 223 202 194 191 186 185 184 185 187 187 185 185 187 185 184 180 171 163 154 147 139 129 107 69 43 40 36 22 21 23 16 9 13 11 7 9 8 358 339 337 332 315 309 300 280 274 274 272 268 259 257 255 249 246 238 232 232 228 229 235 238 245 245 233
260 252 253 255 256 244 185 132 185 225 237 262 261 255 253 246 246 248 241 229 216 214 221 230 239 239 236 236 239 241 240 238 237 220 192 192 191 187 186 186 188 190 191 190 191 192 190 188 186 177 168 160 149 146 145 131 108 79 66 56 39 34 35 35 34 39 29 11 359 349 351 341 332 325 308 297 293 285 278 276 275 271 262 255 257 254 250 243 238 235 228 226 229 234 244 246 235
242 248 253 248 253 260 224 167 187 232 246 269 271 266 261 248 245 246 243 243 237 225 223 229 237 241 242 241 243 245 243 241 235 205 180 191 194 190 188 187 188 190 194 194 193 196 195 191 191 181 171 166 155 149 147 139 137 115 93 79 67 66 65 60 57 51 22 355 342 329 342 341 327 314 307 300 290 285 280 280 280 276 269 258 252 253 250 243 240 237 229 225 224 227 237 239 232
229 236 254 269 288 281 266 174 160 240 238 248 265 267 257 243 236 237 235 233 236 236 231 231 231 234 240 243 248 252 246 238 223 193 185 195 194 192 190 189 188 190 196 197 194 198 198 194 191 182 174 170 159 153 153 154 163 155 148 156 126 115 98 62 46 35 8 344 336 330 332 326 316 306 302 298 291 290 291 284 278 277 278 269 256 253 253 247 243 239 232 227 225 225 227 230 230
245 223 225 268 300 285 267 255 235 253 239 210 226 259 253 227 224 228 227 221 223 232 236 236 231 227 232 237 237 237 232 227 221 204 195 193 191 192 192 190 189 191 196 197 196 198 199 197 190 183 178 172 163 156 156 162 167 162 164 167 136 96 83 65 49 41 15 356 346 330 319 307 305 303 298 295 289 288 292 291 283 278 276 272 268 260 256 253 246 242 237 231 228 227 224 224 228
265 195 178 226 274 266 254 250 235 258 266 173 197 266 287 231 218 214 206 209 214 222 235 237 232 227 228 229 222 217 215 210 214 214 199 189 189 191 190 191 191 192 195 196 197 198 200 199 191 184 182 175 168 162 159 166 172 163 153 148 138 102 97 99 90 86 52 17 350 323 306 296 296 297 297 293 290 286 285 282 280 279 273 270 273 270 263 258 251 245 240 236 234 230 224 222 227
263 106 157 207 244 244 239 241 239 260 288 173 197 244 277 272 256 216 188 199 213 215 222 224 225 224 220 219 211 204 206 202 200 208 202 190 188 190 189 189 190 191 192 194 196 196 197 199 192 186 187 179 171 168 165 172 181 171 162 159 153 137 126 131 141 145 122 79 15 329 302 295 289 288 291 290 289 288 285 280 277 276 273 269 269 268 268 264 259 253 242 238 238 234 228 226 229
252 97 217 225 238 237 233 239 244 253 266 244 220 222 247 259 249 194 178 210 225 216 213 212 214 217 213 212 210 204 203 199 194 198 202 195 188 188 187 185 187 191 191 190 192 193 193 195 192 188 188 181 174 172 170 173 175 173 175 175 163 147 145 152 156 158 161 162 143 321 304 301 289 280 282 284 288 287 285 286 283 277 273 272 268 264 266 268 267 263 250 243 241 239 236 232 231
347 218 245 244 240 236 236 244 252 253 250 258 247 216 224 259 242 193 193 220 232 220 212 209 207 213 210 206 210 210 203 196 193 194 196 195 188 184 183 184 188 189 186 187 189 189 188 189 189 189 189 185 179 177 175 174 171 175 182 174 167 161 157 165 166 163 181 206 221 249 291 299 292 285 277 273 277 281 283 285 284 280 277 275 272 267 269 270 272 270 262 256 248 240 238 234 232
231 238 240 232 229 227 235 242 254 263 247 244 247 224 219 258 262 238 211 192 211 223 219 207 199 205 206 201 206 209 204 198 195 194 191 189 186 184 185 186 186 182 181 186 187 184 184 186 189 192 192 189 184 181 180 177 173 180 182 172 170 171 166 171 176 178 192 222 246 249 262 277 280 282 278 269 265 270 278 281 281 280 279 278 274 269 270 268 266 268 266 263 255 243 237 234 232
223 234 241 234 226 224 236 238 239 257 251 245 246 222 216 241 255 277 298 146 187 230 242 221 197 198 202 201 207 210 210 204 197 197 190 185 185 184 185 186 182 179 182 186 184 181 183 187 191 194 194 191 186 183 182 180 178 180 180 175 175 175 174 177 181 184 190 212 237 244 255 264 267 269 269 270 268 264 269 274 276 279 277 276 274 272 275 273 265 262 263 263 261 251 241 234 231
227 232 236 242 242 233 239 239 234 240 239 247 248 211 213 241 256 275 280 174 197 221 246 235 198 197 203 204 209 211 217 216 204 202 197 191 191 185 184 188 185 185 189 187 183 182 184 188 192 195 195 192 188 186 185 182 183 183 181 180 180 180 183 185 187 189 193 208 224 230 248 262 265 266 265 269 271 268 268 268 270 274 275 274 274 276 280 283 276 267 265 264 263 260 251 239 232
224 234 232 239 252 252 249 247 246 249 244 245 244 219 229 249 259 259 246 222 204 204 229 235 206 202 207 212 217 212 212 220 217 211 205 199 197 192 192 195 191 190 193 190 184 184 186 189 192 195 196 193 190 189 188 186 186 185 184 184 184 185 187 189 194 197 200 211 222 229 242 254 260 263 264 266 266 267 267 267 268 268 270 271 274 275 277 279 277 271 270 268 264 263 260 251 239
221 237 246 247 251 258 265 271 271 277 293 284 208 220 235 243 253 252 243 233 212 202 212 215 209 211 216 222 230 227 216 214 217 219 214 202 194 193 197 200 197 196 197 196 192 187 187 189 192 195 195 193 191 190 189 189 188 185 184 184 186 189 190 193 198 201 205 215 226 236 243 249 258 263 264 265 263 266 267 267 267 266 266 269 270 272 273 273 272 270 270 270 268 264 261 259 250
232 235 247 249 254 260 266 277 284 292 302 281 230 226 231 249 272 266 238 228 220 216 210 207 207 207 213 218 224 234 231 221 217 218 216 204 194 195 198 200 201 200 198 198 198 192 186 187 189 193 196 193 191 192 191 191 189 186 184 184 186 188 190 195 200 202 206 217 229 242 249 252 259 264 266 266 264 266 267 267 269 268 267 269 268 269 270 270 269 268 267 267 267 266 262 260 256
263 242 244 253 264 270 267 267 269 270 271 265 253 248 242 253 267 257 239 230 229 228 218 213 212 205 207 213 216 225 230 228 224 219 218 210 198 194 195 199 202 203 203 201 199 193 185 182 183 188 193 192 190 192 194 193 190 186 184 184 185 187 191 195 202 204 208 223 237 246 254 257 261 265 267 268 267 268 269 271 273 273 272 272 270 270 269 269 268 266 265 264 264 264 263 261 258
264 256 263 277 273 267 267 267 263 258 260 263 254 251 249 249 260 258 245 236 234 238 230 221 218 211 210 211 212 219 225 226 224 219 217 212 201 194 195 201 201 205 210 200 193 196 188 179 180 184 189 191 191 191 193 192 190 186 185 185 185 187 192 196 203 209 214 228 239 245 254 260 264 267 270 273 272 271 272 274 274 276 276 274 272 271 270 269 269 267 265 264 261 262 264 263 258
252 267 277 278 269 259 252 256 261 261 264 264 255 254 254 253 256 258 256 251 238 235 236 233 226 218 215 216 214 217 221 223 222 218 214 210 204 198 200 204 205 211 210 188 179 195 192 179 178 183 188 190 188 188 190 190 189 188 185 185 186 187 193 199 204 211 220 229 237 244 253 261 267 271 275 279 279 277 275 274 274 276 276 274 272 271 271 270 268 268 266 264 261 259 260 261 260
245 261 265 260 264 267 264 259 256 260 264 266 266 263 257 257 261 255 261 271 263 237 230 238 239 228 221 222 221 217 216 216 217 214 211 207 204 204 205 206 211 212 192 164 173 186 185 178 176 181 185 186 184 185 188 189 189 188 184 183 186 190 197 202 206 214 223 232 238 244 250 257 265 270 275 279 280 279 278 277 276 276 274 272 272 271 270 270 268 268 266 264 262 260 258 258 258
249 250 253 251 250 258 266 262 254 256 261 264 268 269 263 264 271 261 258 271 274 259 238 234 241 237 229 227 225 222 217 214 214 214 213 206 201 208 210 209 217 208 168 157 174 181 178 177 176 179 181 181 183 185 188 189 188 186 183 182 186 191 199 206 212 219 226 235 239 241 247 256 266 273 278 281 280 279 279 279 277 276 273 271 270 269 268 268 267 267 266 265 263 261 260 259 258
274 268 267 266 261 262 263 259 255 254 259 265 267 270 270 273 281 277 272 271 272 272 266 251 240 236 235 232 223 219 218 214 213 213 216 215 207 208 211 216 221 205 171 169 178 179 180 177 173 176 180 182 184 184 188 189 187 186 184 184 188 193 203 210 216 224 231 237 241 242 250 263 273 279 280 279 278 277 277 277 276 275 273 270 268 267 267 266 265 264 264 264 263 262 261 261 261
Height
787 787 787 787 785 785 781 779 788 780 776 781 764 754 748 741 747 751 755 755 755 754 747 747 746 748 752 759 763 765 769 771 777 782 794 789 778 783 783 786 788 787 789 790 792 793 794 796 797 799 800 801 802 802 803 803 804 804 806 807 807 809 809 810 811 812 813 813 814 814 815 816 817 818 819 820 820 821 822 823 823 823 824 824 824 825 826 827 827 827 828 828 829 829 829 828 829
788 788 786 787 784 786 779 774 789 780 775 781 761 749 745 743 752 753 754 754 755 753 747 748 750 752 752 753 755 763 772 770 771 777 782 779 778 783 784 788 788 788 789 790 792 793 795 797 798 800 801 802 802 803 804 804 805 805 806 807 808 809 810 811 812 812 814 815 815 815 816 816 818 818 819 820 821 822 823 823 824 824 825 825 826 826 827 828 828 829 829 829 829 830 830 831 830
788 787 785 786 782 781 776 774 789 780 773 775 756 741 743 750 753 749 750 752 752 750 749 751 753 756 754 758 761 769 778 771 769 773 776 777 778 783 787 788 788 790 790 790 792 793 796 797 799 801 802 803 803 804 804 804 805 805 806 807 808 809 810 810 812 813 814 816 816 816 817 817 818 819 820 820 822 823 823 824 824 825 826 826 827 827 828 829 829 830 830 830 830 831 832 832 832
786 786 784 782 780 780 780 781 783 777 771 765 750 739 744 750 748 750 752 752 751 749 752 754 759 759 755 765 767 770 779 775 773 774 777 779 779 785 788 788 789 790 790 792 792 795 797 798 801 802 803 803 804 805 805 805 805 806 807 808 808 809 810 811 812 814 815 816 817 817 817 818 819 819 821 821 822 823 824 825 825 826 827 827 828 828 829 829 830 831 831 831 831 832 833 834 834
786 786 783 780 782 778 778 779 774 774 768 754 747 744 744 744 747 756 755 754 752 752 754 755 763 760 758 767 765 772 780 776 776 776 779 782 783 786 787 789 789 789 792 793 794 797 799 801 802 803 805 805 806 807 807 807 807 808 808 809 809 810 811 812 813 814 815 816 817 818 818 819 819 820 821 822 823 823 825 826 826 827 827 828 828 829 830 830 831 831 832 832 832 833 834 835 835
785 784 782 780 778 773 777 779 773 770 757 745 748 747 743 742 749 757 756 756 753 753 755 755 761 762 768 771 768 775 776 775 779 778 780 783 785 787 789 789 789 791 792 793 796 798 800 803 804 805 805 806 807 808 809 808 808 809 810 810 810 811 812 813 814 815 816 817 817 818 818 819 820 821 821 823 824 824 825 826 827 827 828 829 829 830 831 831 832 832 833 833 833 834 835 836 836
783 781 780 782 777 774 784 780 770 764 748 741 749 749 744 745 749 755 758 760 759 757 756 757 756 762 774 773 774 778 775 777 779 781 783 784 787 788 790 790 790 792 792 794 797 798 801 804 805 805 805 806 807 809 810 809 810 810 810 811 812 812 813 814 815 816 817 817 818 818 819 820 820 821 822 823 824 825 826 826 827 828 829 829 830 831 831 832 832 833 833 834 834 835 836 837 837
781 779 775 782 781 776 783 777 764 755 746 742 746 749 745 747 750 754 759 760 762 761 759 758 754 765 773 769 779 782 778 780 781 784 785 786 789 790 791 790 791 793 795 796 797 799 802 804 805 805 805 806 806 808 810 810 811 811 811 812 812 813 814 814 815 816 817 817 818 819 820 820 821 823 823 824 825 825 826 827 828 829 829 830 831 831 832 832 833 833 834 834 835 836 837 838 839
779 778 774 780 781 776 777 773 761 748 749 749 747 752 748 747 750 753 758 758 759 760 760 759 757 768 772 772 783 781 779 783 783 785 786 788 790 791 792 792 794 794 796 798 799 802 803 805 805 805 807 806 807 809 810 811 811 812 812 812 813 813 814 815 815 816 817 818 819 820 821 821 822 823 824 825 826 826 827 828 829 829 830 830 831 831 832 833 834 834 835 835 836 837 838 839 839
776 776 775 779 779 777 775 769 759 746 748 751 749 753 750 748 750 751 757 759 759 760 762 758 759 766 771 778 783 779 780 784 784 786 787 789 791 792 794 794 796 796 798 800 801 803 804 805 804 806 806 807 808 809 810 811 811 812 813 812 812 813 814 815 816 817 817 818 819 821 821 822 823 824 825 826 827 828 828 829 830 830 830 831 831 832 833 833 834 834 835 836 837 838 838 839 839
777 774 773 780 780 778 771 763 756 747 747 752 753 751 749 749 751 752 754 758 759 762 764 761 763 766 771 779 782 780 781 783 784 787 789 791 792 794 795 796 797 798 800 801 803 803 803 804 805 806 806 807 807 808 810 810 811 812 812 812 812 813 814 815 817 817 818 819 820 821 822 823 824 825 826 827 828 829 829 830 830 831 831 832 832 833 833 834 834 835 836 836 838 839 839 840 840
779 774 773 782 779 771 763 757 751 746 751 756 757 752 749 750 754 756 757 761 761 764 765 762 762 763 773 782 781 780 781 783 785 788 790 792 794 795 796 797 798 799 801 803 804 804 804 805 806 807 807 807 806 806 808 810 812 812 813 813 812 813 815 816 817 818 819 819 820 821 822 823 824 825 826 827 829 829 830 831 831 832 832 832 833 833 834 834 835 835 836 837 838 839 840 841 841
778 772 773 779 770 762 756 752 746 749 758 756 755 752 749 753 757 757 758 762 762 766 765 760 758 760 773 781 779 780 782 784 786 788 791 792 795 796 797 798 799 800 802 803 805 806 806 806 806 807 808 807 807 808 808 810 812 812 814 814 814 814 815 817 818 819 820 820 820 821 822 823 824 826 827 828 829 830 831 832 832 832 833 833 833 833 834 834 835 836 837 838 839 840 841 841 842
773 767 770 774 766 759 755 753 749 756 761 750 751 753 752 755 755 754 757 764 764 764 763 758 758 764 773 780 782 781 782 785 787 790 791 794 796 797 799 800 801 802 803 804 805 806 807 808 807 808 808 808 808 810 810 810 812 813 814 815 815 815 816 817 818 820 820 821 821 821 823 823 825 826 827 828 829 830 831 832 832 833 833 833 833 834 834 835 836 836 837 838 839 840 841 842 842
768 763 767 773 767 761 758 756 752 758 756 747 753 755 756 756 752 754 756 763 764 759 761 761 762 768 773 776 780 779 781 786 788 791 793 795 796 797 800 801 802 803 804 805 805 807 808 810 809 809 810 809 809 809 810 811 812 814 815 815 816 816 817 818 819 820 821 821 821 822 823 824 825 826 827 828 829 830 831 832 832 833 834 834 834 834 834 835 836 837 838 839 840 841 841 842 843
764 764 771 776 771 765 759 755 754 758 753 749 753 753 760 761 754 758 756 758 763 761 763 766 766 769 769 769 773 775 782 787 789 793 794 795 796 797 799 800 803 805 806 807 807 807 808 810 810 811 811 811 811 811 811 812 813 814 815 816 816 817 818 819 820 821 821 822 822 822 823 824 825 826 827 828 829 830 831 832 832 833 834 834 834 835 835 836 837 838 839 840 841 842 842 843 843
763 769 777 777 772 766 756 754 756 757 753 752 754 753 763 766 759 759 757 757 764 767 766 767 768 767 769 770 773 778 784 788 791 793 793 795 795 795 797 799 802 804 807 808 809 809 809 810 811 812 812 813 813 812 813 813 814 814 815 816 817 818 819 820 821 821 822 822 822 822 823 824 825 825 826 827 828 830 831 831 832 833 834 835 835 835 836 837 838 839 839 840 841 842 842 843 843
768 775 779 775 768 759 749 749 750 750 755 757 755 755 760 767 766 761 762 763 765 769 769 769 770 769 771 774 777 782 786 789 791 792 793 793 793 793 796 798 801 803 806 808 810 810 810 810 811 812 813 813 812 813 813 813 814 815 816 817 818 819 820 821 821 822 822 821 822 822 823 824 824 825 825 826 828 829 830 831 832 833 834 835 835 836 837 837 839 840 840 841 841 842 842 843 843
770 773 776 771 759 751 746 746 748 750 755 756 755 755 757 763 764 763 766 769 769 772 772 772 774 775 775 776 780 784 787 790 791 792 792 793 793 795 797 800 803 804 805 808 810 811 811 811 811 812 812 813 812 813 813 814 815 815 817 818 819 820 821 821 822 822 822 821 822 822 823 823 824 824 825 825 827 829 830 831 832 833 834 835 835 836 837 838 839 840 841 842 842 842 842 843 844
768 768 772 763 749 749 751 751 754 753 752 756 759 757 757 759 759 763 766 768 770 771 771 773 775 777 777 777 780 785 788 790 791 792 793 794 795 798 799 801 803 805 806 808 810 812 812 812 812 812 813 813 813 813 813 814 815 816 817 819 820 821 820 821 822 822 821 821 821 822 822 822 823 823 825 825 826 828 829 831 832 833 834 835 836 836 837 838 839 841 842 842 842 842 842 843 843
765 765 766 755 747 753 755 754 756 755 754 757 760 761 762 759 758 763 764 768 772 766 762 767 769 772 776 778 781 785 787 789 791 792 793 795 797 799 801 803 804 805 806 808 810 812 812 812 812 812 813 813 813 814 814 814 814 815 817 818 820 820 820 820 821 821 821 820 820 821 821 822 823 824 825 825 825 827 828 830 832 833 834 834 835 836 836 837 839 841 842 842 842 842 842 843 843
764 762 758 755 753 756 756 756 759 759 758 758 762 765 762 760 762 763 764 768 769 761 756 761 764 767 774 778 781 784 786 788 790 792 793 796 798 800 802 803 804 805 806 808 810 812 812 812 812 813 813 813 813 814 814 814 814 814 816 817 818 819 819 819 820 820 819 819 819 821 821 822 824 824 824 824 825 825 827 830 831 832 833 833 834 835 836 837 838 839 841 841 841 841 842 843 843
766 762 755 758 758 758 759 760 763 762 761 762 763 762 759 765 768 763 764 764 763 761 758 762 764 766 773 778 782 784 786 788 789 791 793 796 799 800 802 803 804 805 807 809 811 812 812 812 813 813 813 813 813 813 813 814 814 815 815 816 816 817 818 819 819 818 818 818 819 820 820 821 824 824 823 823 824 824 827 829 830 830 831 832 833 834 834 836 837 838 839 840 840 841 842 843 843
767 763 757 760 760 760 762 763 765 763 764 763 761 763 764 769 768 764 766 762 762 764 762 764 765 767 774 778 782 784 785 787 788 791 793 796 799 801 802 804 805 806 808 810 811 812 813 813 813 813 813 814 813 813 813 814 815 816 816 816 816 816 816 817 817 818 819 818 818 819 819 820 823 824 822 822 823 824 827 828 828 829 829 831 832 832 833 834 836 837 838 839 839 840 841 842 843
767 763 758 761 762 762 763 765 766 766 765 763 764 769 767 766 766 767 768 762 764 766 764 765 767 770 776 780 782 783 785 787 789 791 794 797 800 801 803 804 806 808 809 810 812 812 813 814 814 814 814 814 814 814 814 814 816 818 817 817 817 817 817 816 816 817 818 818 818 819 819 819 821 822 820 822 822 823 826 827 827 828 828 829 830 831 831 833 835 836 837 838 839 840 840 842 843
763 760 759 763 765 763 765 766 767 767 766 766 770 771 766 764 769 772 766 762 766 766 767 767 768 773 776 780 782 783 785 786 789 792 794 797 800 801 803 805 806 808 810 811 812 813 813 814 814 815 815 815 815 815 815 815 816 817 818 818 818 818 817 816 816 816 817 817 817 818 818 818 820 821 821 822 822 823 825 826 826 827 827 828 829 830 830 832 833 835 836 837 838 839 840 841 842
757 759 760 763 765 764 767 766 766 768 766 768 771 770 766 765 772 774 762 760 767 767 769 768 770 775 776 779 781 782 785 786 789 792 794 797 799 801 803 804 806 808 810 811 812 813 814 814 814 815 815 815 815 815 815 816 816 817 817 817 818 817 817 816 816 816 815 815 816 816 816 818 820 820 821 822 823 823 824 824 825 826 826 827 827 829 830 831 833 834 835 836 837 838 839 840 842
758 761 764 765 766 766 767 767 767 768 767 768 769 769 766 767 772 770 759 761 767 768 770 769 771 774 775 778 780 781 784 786 789 791 794 796 798 800 802 804 806 808 809 811 812 814 814 815 815 816 816 816 816 816 816 816 816 816 817 817 817 817 817 817 817 816 815 814 814 815 816 818 820 820 820 821 822 823 823 824 824 825 825 825 827 828 829 831 832 834 835 835 836 837 838 839 841
761 762 768 768 768 769 767 766 766 767 768 765 769 775 771 769 770 763 760 764 765 768 770 769 771 772 774 777 779 781 782 785 788 790 793 794 796 799 801 804 805 807 809 811 813 814 815 815 816 816 817 817 817 817 817 817 817 816 817 817 817 817 817 817 817 817 816 815 814 815 816 818 820 820 819 820 821 822 822 823 824 824 825 825 826 828 829 830 832 833 834 835 836 837 837 838 840
764 764 767 767 771 771 764 763 765 767 768 765 773 784 773 762 761 758 761 765 766 769 769 769 771 771 774 776 778 780 781 784 786 788 791 792 795 798 800 803 804 806 808 811 812 814 815 816 817 817 817 818 817 818 817 817 817 817 817 817 817 817 817 817 817 817 817 816 816 816 816 817 819 820 820 819 819 821 822 824 824 824 825 824 825 827 829 830 831 833 834 835 836 836 836 838 840
765 766 767 766 772 766 755 760 766 769 769 764 776 786 770 752 754 758 761 764 766 769 769 769 770 771 773 775 777 779 780 783 784 787 790 791 794 797 800 802 803 805 807 810 812 814 815 816 817 817 818 818 818 818 818 818 818 817 817 817 817 817 817 817 817 817 817 817 817 817 816 817 818 820 821 820 819 821 823 824 825 825 825 824 825 826 828 830 831 832 833 834 835 835 835 836 838
764 771 775 769 768 762 755 759 763 767 767 764 775 783 767 750 752 759 761 764 766 768 769 768 770 772 773 775 777 777 778 781 783 786 789 791 793 795 798 801 803 804 806 809 811 813 814 816 817 817 818 818 818 818 818 818 818 818 818 817 817 817 817 817 817 817 817 817 817 817 817 817 818 820 821 821 820 821 822 823 824 825 825 825 825 825 826 828 831 832 833 834 834 835 834 834 836
764 770 775 766 764 764 761 761 759 761 765 766 773 775 763 750 751 760 762 763 766 767 768 769 770 773 774 775 776 776 777 779 781 784 787 790 792 794 797 800 803 804 806 808 810 812 813 815 816 817 817 818 818 818 818 818 818 818 818 818 818 817 817 817 817 817 817 817 817 817 817 816 818 819 820 820 820 820 821 823 823 824 824 825 825 825 824 826 829 831 832 833 833 833 833 832 832
768 768 771 763 759 762 762 763 759 758 765 768 770 771 765 753 753 761 764 763 766 767 767 768 770 772 773 774 774 775 777 778 779 781 785 789 791 794 796 799 801 804 806 807 809 811 812 814 815 816 817 817 818 818 818 818 818 818 818 818 818 817 817 817 817 817 817 817 817 817 816 816 817 818 819 819 819 819 820 822 822 823 824 824 825 824 824 824 826 829 831 832 832 832 832 831 830
765 765 768 766 761 762 762 761 760 760 768 769 768 771 767 758 755 761 764 764 766 767 766 767 769 771 773 772 772 773 774 775 777 778 782 787 789 792 795 797 800 802 805 806 808 810 811 813 814 815 816 816 817 818 818 817 817 818 818 818 818 818 817 817 817 817 817 817 816 817 816 816 817 817 818 819 819 819 819 820 821 822 823 824 824 825 825 825 825 828 829 830 831 832 832 831 830
763 759 762 766 763 762 759 761 764 763 770 771 769 769 766 761 757 758 763 765 766 767 766 767 768 769 770 771 771 771 772 772 773 776 779 784 787 791 793 796 799 801 803 805 807 809 810 812 813 814 815 815 816 817 817 817 817 818 818 818 818 818 817 817 817 817 817 817 817 817 816 816 817 817 818 818 818 818 819 819 819 821 822 823 824 824 824 824 825 826 828 829 831 832 831 830 830
769 767 768 769 768 764 757 761 767 766 773 773 767 767 764 761 758 755 759 764 767 768 768 768 768 769 769 769 769 770 770 770 769 772 776 780 785 788 792 794 797 799 802 804 806 808 809 810 812 813 814 815 815 816 816 817 817 817 818 818 818 817 818 817 817 817 817 817 817 817 816 817 817 816 817 817 818 818 818 818 818 819 821 821 822 823 823 824 824 825 826 828 830 831 831 829 829
775 775 774 773 770 766 759 764 769 769 779 777 767 768 765 759 758 754 753 759 766 768 768 769 767 768 768 767 768 768 767 767 767 769 771 776 782 786 790 792 795 797 799 802 804 806 808 809 810 812 813 814 815 815 816 817 817 818 818 818 818 818 818 817 817 817 817 817 817 817 816 817 817 817 817 817 817 818 818 818 819 819 819 820 820 821 822 823 824 824 824 826 827 828 828 828 828
779 776 776 774 766 762 762 768 770 769 779 780 771 769 764 757 757 755 753 755 759 762 764 766 766 766 766 765 766 765 765 766 765 765 769 774 779 783 788 790 792 795 797 800 802 804 806 808 809 811 812 813 814 815 816 817 817 817 817 818 817 817 817 817 817 817 817 817 817 817 816 816 816 816 816 816 817 817 817 818 818 818 819 819 819 819 820 821 822 822 822 824 824 826 827 827 827
779 776 776 772 763 765 770 771 773 772 777 780 773 770 765 759 759 757 755 753 753 755 758 761 762 763 762 762 762 763 764 765 764 765 769 774 777 781 785 787 790 793 795 798 800 802 804 806 808 809 811 812 813 814 815 816 816 816 817 817 817 817 817 817 817 817 817 817 817 816 816 816 816 816 816 816 816 816 816 817 817 817 818 818 818 818 818 818 819 819 820 821 822 824 824 824 825
777 774 775 770 764 770 773 774 778 776 777 777 776 779 771 760 761 758 752 752 752 753 754 756 757 758 760 760 761 762 762 763 763 765 770 773 775 778 782 785 788 790 793 795 798 800 802 804 806 808 810 811 812 813 814 815 815 816 816 816 816 816 816 816 816 817 817 817 817 816 816 816 816 816 816 816 815 815 816 816 817 817 816 817 816 816 816 816 816 817 817 818 819 821 821 821 822
775 770 770 771 770 773 774 776 781 783 781 774 776 787 773 752 755 756 749 750 751 752 752 753 753 755 758 760 760 761 761 762 762 763 767 771 774 776 779 782 785 788 790 793 796 798 800 802 804 806 808 809 810 811 812 814 814 815 815 815 815 814 815 816 816 816 816 816 816 816 816 816 816 816 816 816 815 815 816 816 816 816 816 815 815 815 815 814 814 814 815 816 816 818 819 819 820
779 766 763 770 773 776 778 778 782 784 779 770 773 785 775 755 751 748 746 750 751 751 752 751 751 753 754 755 756 758 760 761 762 762 764 768 771 774 776 780 782 785 788 791 794 796 798 800 802 805 806 808 809 809 811 812 813 813 814 814 814 814 814 815 815 816 815 816 816 816 816 816 816 816 816 816 816 815 815 816 816 816 815 815 814 813 813 812 812 812 813 813 813 815 817 818 819
779 767 764 771 774 777 778 778 780 774 768 770 771 775 780 770 752 740 742 751 752 751 752 751 750 750 750 751 751 754 757 758 761 763 763 765 769 771 774 777 780 783 786 789 792 794 796 798 800 802 804 806 807 808 809 810 811 812 813 813 813 813 814 814 815 815 815 815 815 815 815 815 815 815 815 815 815 815 815 815 815 815 815 814 813 812 812 811 810 811 810 811 811 812 814 815 817
773 767 766 769 771 775 774 775 776 767 768 779 768 765 782 776 749 737 743 750 752 750 749 749 748 747 747 748 749 750 752 754 757 760 762 763 766 769 772 775 778 781 784 787 790 792 794 796 798 800 802 804 805 806 807 808 810 811 811 812 812 813 813 813 814 814 814 814 814 814 814 814 814 814 815 815 815 815 815 815 815 814 814 813 812 811 811 810 809 809 808 808 809 809 811 812 814
767 766 768 769 770 772 773 774 772 767 774 783 767 761 779 772 744 737 747 752 750 746 744 744 744 744 744 745 747 747 748 751 753 757 759 761 764 768 771 773 777 779 782 785 788 790 792 794 796 798 800 802 803 804 805 807 808 809 810 811 811 812 812 812 813 813 813 813 813 813 813 813 813 813 814 814 814 814 814 814 814 813 813 812 812 811 810 809 808 807 807 807 807 807 808 809 811
766 770 771 771 771 770 773 772 770 776 780 776 762 755 769 772 748 732 738 744 743 741 740 740 740 742 742 743 745 746 746 748 750 753 756 760 763 766 769 771 774 777 781 784 786 788 790 792 794 796 797 799 800 802 803 804 806 807 809 809 810 811 811 811 812 812 812 812 812 812 812 812 812 812 812 812 813 813 813 813 813 813 812 811 811 810 809 808 808 807 806 805 805 805 806 806 807
768 772 771 773 774 773 777 776 778 791 787 767 751 748 765 777 755 731 729 734 737 740 739 737 738 740 741 742 743 743 744 745 747 750 753 758 762 765 767 770 772 776 780 782 784 786 788 790 791 793 795 797 798 800 801 802 804 806 807 808 809 809 810 810 811 811 811 811 811 811 811 811 811 811 811 811 811 811 812 812 812 811 811 810 810 809 808 807 807 806 805 804 803 803 803 803 803
768 771 773 780 781 779 785 785 784 789 780 756 744 750 768 770 749 733 732 734 735 738 736 734 736 738 740 740 741 742 742 743 744 747 750 755 760 763 766 769 771 775 778 780 782 783 785 787 789 791 793 795 796 798 799 801 802 804 805 806 807 808 808 809 809 810 810 810 810 810 810 810 810 809 809 810 810 810 810 810 810 810 810 809 809 808 806 805 805 804 804 803 802 801 800 800 800
770 769 772 781 784 786 788 780 774 772 763 750 746 757 771 764 744 733 731 730 731 733 734 733 733 736 738 738 738 739 740 741 742 743 746 750 756 761 765 767 769 772 775 777 779 781 783 785 787 789 790 792 794 796 797 799 800 802 803 804 805 806 807 807 808 808 809 809 809 809 809 809 808 808 808 808 808 808 808 808 808 808 808 807 807 806 805 804 804 803 802 801 800 799 798 797 797
764 759 761 771 775 782 785 775 770 768 762 759 760 768 774 764 745 730 725 725 725 728 731 731 732 734 735 736 736 736 736 738 739 740 741 745 751 757 762 764 766 769 772 774 777 778 780 782 784 786 788 790 792 794 796 797 798 800 801 802 804 805 805 806 807 807 807 808 808 808 808 808 808 807 807 806 806 806 805 805 805 805 805 805 805 804 803 802 802 801 800 799 798 797 796 795 795
755 751 760 767 762 767 776 773 770 772 775 771 767 767 761 749 736 725 725 726 724 727 728 729 732 733 734 737 736 736 735 735 736 738 739 742 747 753 758 761 763 765 768 771 773 776 778 780 782 784 786 788 790 792 794 796 797 798 799 801 802 803 804 804 805 806 806 807 807 807 807 807 807 806 806 805 804 804 803 803 803 803 803 803 802 802 801 800 800 799 798 797 796 795 794 793 792
755 757 763 758 748 754 770 775 768 772 784 775 762 761 752 744 738 727 726 728 726 727 727 728 730 730 733 736 736 736 735 734 735 736 738 740 744 750 755 759 761 763 765 767 770 774 776 777 779 782 784 786 789 791 792 794 795 797 797 799 800 801 802 803 804 804 805 805 805 806 806 806 806 805 805 804 803 803 802 802 801 801 801 801 800 800 799 798 798 797 796 795 794 793 792 791 790
757 761 756 748 748 752 764 778 776 776 784 772 760 762 756 753 748 731 724 727 727 727 727 727 729 730 732 733 733 734 733 733 734 734 737 739 741 746 751 755 758 761 763 765 769 773 774 775 777 779 781 783 786 788 791 792 793 795 796 797 798 799 800 801 802 803 803 804 804 804 805 805 804 804 804 803 803 802 801 800 800 799 799 799 798 798 797 797 796 795 793 793 792 792 790 789 788
750 752 746 751 766 766 766 778 783 783 785 774 762 758 752 748 743 733 728 725 723 726 727 727 729 729 731 731 730 731 731 732 733 733 736 737 740 744 748 752 755 757 760 762 767 772 774 774 774 776 779 781 784 786 788 790 792 793 794 795 796 797 798 799 800 801 802 802 803 803 803 803 803 803 803 802 802 801 799 799 798 797 797 797 797 796 796 795 794 793 792 790 790 789 788 787 786
745 748 746 749 760 764 762 767 773 778 783 778 768 760 749 737 728 728 730 724 721 725 726 728 728 726 729 729 729 730 730 732 732 733 734 736 739 742 745 749 751 753 757 761 766 770 771 772 772 774 776 778 781 784 786 788 790 791 792 793 794 795 796 797 798 799 800 800 801 801 801 801 801 801 800 800 800 799 798 797 796 796 795 795 795 794 794 793 792 791 790 788 787 787 786 785 784
753 757 756 753 755 757 757 758 758 764 773 775 773 767 749 727 718 722 725 723 721 721 721 725 725 723 725 726 727 729 730 731 732 731 732 734 737 740 742 745 747 750 755 760 764 767 769 769 770 772 774 776 779 782 784 786 787 789 790 791 792 794 795 796 796 797 798 798 798 798 799 799 798 798 798 798 798 797 797 796 795 794 793 793 793 792 792 791 790 789 788 787 785 785 784 782 781
752 756 755 753 753 757 765 766 756 752 759 763 766 767 748 724 717 718 719 720 720 718 718 720 721 722 723 723 725 728 729 730 730 730 731 732 733 737 740 742 744 747 753 757 760 764 766 766 768 770 772 774 777 779 781 784 785 787 788 789 791 792 793 794 794 795 795 796 796 796 796 796 796 796 796 796 796 795 795 794 793 792 792 791 791 790 789 789 788 787 786 785 783 782 781 780 779